Simultaneous Nadir Overpasses (SNOs) Predictions

Prediction of SNOs between LANDSAT-8 and METOP-B Satellite Orbit:

Table of predicted SNOs for the next 14.0 days since TLE Epoch: 12/31/2016
Index Date (LANDSAT-8) Time (LANDSAT-8) Lat,Lon (LANDSAT-8) SZA (LANDSAT-8 ) Date (METOP-B) Time (METOP-B) Lat,Lon (METOP-B) SZA (METOP-B ) Distance(km) Time Diff (sec)
1 01/01/2017 09:53:50 -81.08,-109.35 74.19 01/01/2017 09:52:55 -81.08,-109.31 74.21 0.67 55
2 01/01/2017 10:43:15 81.11, 58.74 105.88 01/01/2017 10:43:33 81.11, 58.85 105.90 1.96 18
3 01/04/2017 05:28:04 -81.08, -42.94 74.49 01/04/2017 05:27:15 -81.08, -42.96 74.51 0.32 49
4 01/04/2017 06:17:29 81.10, 125.12 105.57 01/04/2017 06:17:53 81.11, 125.19 105.59 1.19 24
5 01/07/2017 01:02:19 -81.07, 23.43 74.86 01/07/2017 01:01:36 -81.07, 23.37 74.88 1.04 43
6 01/07/2017 01:51:44 81.10,-168.53 105.20 01/07/2017 01:52:14 81.10,-168.50 105.22 0.84 30
7 01/09/2017 20:36:33 -81.09, 90.12 75.24 01/09/2017 20:35:56 -81.08, 90.05 75.26 1.43 37
8 01/09/2017 21:25:58 81.11,-101.86 104.82 01/09/2017 21:26:34 81.11,-101.83 104.83 0.51 36
9 01/12/2017 16:10:47 -81.08, 156.43 75.72 01/12/2017 16:10:16 -81.08, 156.33 75.74 1.64 31




NCC Satellite Simultaneous Nadir Overpasses (SNOs) Prediction Service
